Regional Weather Roundup
Issued by NWS

Home | Current Version | Previous Version | Graphics & Text | Print | Product List | Glossary On
Versions: 1 2 3 4 5 6 7 8 9 10 11 12 13 14 15 16 17 18 19 20 21 22 23 24 25 26 27 28 29 30 31 32 33 34 35 36 37 38 39 40 41 42 43 44 45 46 47 48 49 50
736
ASUS43 KLSX 241807
RWRMO

WEATHER SUMMARY FOR MISSOURI
NATIONAL WEATHER SERVICE SPRINGFIELD MO
100 PM CDT SUN JUL 24 2016

NOTE: "FAIR" INDICATES FEW OR NO CLOUDS BELOW 12,000 FEET WITH NO
       SIGNIFICANT WEATHER AND/OR OBSTRUCTIONS TO VISIBILITY.
       CURRENT SKY AND/OR WEATHER CONDITIONS ARE NOT AVAILABLE FOR
       CHILLICOTHE AND FARMINGTON.

MOZ001>031-035>038-043-044-053-054-241900-
...NORTHERN AND WESTERN MISSOURI...

CITY           SKY/WX    TMP DP  RH WIND       PRES   REMARKS
KANSAS CTY INT MOSUNNY   93  72  50 VRB5      29.95S HX 101
6HR MIN TEMP:  79; 6HR MAX TEMP:  93;

KANSAS C DTWN  CLOUDY    94  73  50 W5        29.92F HX 103
6HR MIN TEMP:  84; 6HR MAX TEMP:  94;

LEE`S SUMMIT   SUNNY     94  72  48 CALM      29.95F HX 102
6HR MIN TEMP:  81; 6HR MAX TEMP:  96;

ST JOSEPH      CLOUDY    88  77  69 SW5       29.92S HX 100
6HR MIN TEMP:  78; 6HR MAX TEMP:  89;

CHILLICOTHE      N/A     92  75  57 VRB3      29.91F HX 103
6HR MIN TEMP:  80; 6HR MAX TEMP:  94;

KIRKSVILLE     CLOUDY    92  73  53 W7        29.92S HX 100
6HR MIN TEMP:  79; 6HR MAX TEMP:  94;


$$
MOZ066>068-077>081-088>096-101>105-241900-
...SOUTHWEST MISSOURI...

CITY           SKY/WX    TMP DP  RH WIND       PRES   REMARKS
SPRINGFIELD    SUNNY     94  71  47 W9        30.00F HX 101
6HR MIN TEMP:  76; 6HR MAX TEMP:  95;

JOPLIN         SUNNY     93  75  55 SW10      29.99F HX 104
6HR MIN TEMP:  80; 6HR MAX TEMP:  93;

BRANSON        MOSUNNY   91  73  55 W7        30.04S HX 100

$$
MOZ032>034-039>042-045>050-055>058-069>072-241900-
...CENTRAL MISSOURI...

CITY           SKY/WX    TMP DP  RH WIND       PRES   REMARKS
COLUMBIA       SUNNY     93  76  57 W12       29.96S HX 105
6HR MIN TEMP:  78; 6HR MAX TEMP:  93;

JEFFERSON CITY SUNNY     95  74  50 NW8       29.93F HX 105
6HR MIN TEMP:  79; 6HR MAX TEMP:  95;

ROLLA          SUNNY     93  75  55 SW8       29.98F HX 104
6HR MIN TEMP:  77; 6HR MAX TEMP:  93;

SEDALIA        SUNNY     93  77  59 SW8       29.97F HX 107
6HR MIN TEMP:  80; 6HR MAX TEMP:  93;

WHITEMAN AFB   MOSUNNY   91  76  60 VRB6      29.94F HX 103
OSAGE BEACH    SUNNY     93  75  55 W6        29.98F HX 104

$$
MOZ051-052-059>065-241900-
...EAST CENTRAL MISSOURI...

CITY           SKY/WX    TMP DP  RH WIND       PRES   REMARKS
ST LOUIS INTL  MOSUNNY   98  76  49 SW5       29.95F HX 112
6HR MIN TEMP:  82; 6HR MAX TEMP:  98;

SPIRIT OF STL  MOSUNNY   95  78  58 SW8       29.93F HX 111
6HR MIN TEMP:  77; 6HR MAX TEMP:  96;

ST CHARLES     SUNNY     94  80  64 S7        29.93F HX 113
6HR MIN TEMP:  77; 6HR MAX TEMP:  94;


$$
MOZ072>076-082>087-097>100-106>115-241900-
...SOUTH CENTRAL AND SOUTHEAST MISSOURI...

CITY           SKY/WX    TMP DP  RH WIND       PRES   REMARKS
CAPE GIRARDEAU MOSUNNY   90  73  57 VRB5      29.98F HX  98
6HR MIN TEMP:  78; 6HR MAX TEMP:  91;

FARMINGTON     PTSUNNY   93  77  59 VRB5      30.00F HX 107
6HR MIN TEMP:  75; 6HR MAX TEMP:  93;

POPLAR BLUFF   MOSUNNY   88  77  69 SW6       29.98F HX 100
6HR MIN TEMP:  77; 6HR MAX TEMP:  89;

WEST PLAINS    MOSUNNY   93  72  50 CALM      30.03F HX 101
6HR MIN TEMP:  74; 6HR MAX TEMP:  94;


$$



USA.gov is the U.S. government's official web portal to all federal, state and local government web resources and services.